Flag for Germany Weather past 2 weeks in Sindelfingen, Baden-Württemberg, Germany

Now
63 °F

Sunny.


Feels Like: 63 °F
Forecast: 43 / 67 °F
Wind: 7 mph from North

Location: Stuttgart-Echterdingen

Current Time: Aug 20, 2014 at 5:11:45 PM

Latest Report: Aug 20, 2014 at 4:20 PM


Visibility: 10 mi

Pressure: 30.01 "Hg

Humidity: 52%

Dew point: 45 °F

Location of SindelfingenLocation

Historic Weather in Sindelfingen — Graph

°F

Sindelfingen temperature yesterday

Maximum temperature yesterday: 68 °F (at 4:50 PM)
Minimum temperature yesterday: 54 °F (at 3:20 AM)
Average temperature yesterday: 60 °F

Past Weeks' High & Low Weather Summary

 TemperatureHumidityPressure
High82 °F (Aug 10, 5:20 PM)100% (Aug 6, 5:50 AM)30.18 "Hg (Aug 6, 5:50 AM)
Low52 °F (Aug 6, 5:50 AM)40% (Aug 19, 5:50 PM)29.68 "Hg (Aug 13, 1:20 PM)
Average63 °F73%29.97 "Hg
* Reported Aug 5 3:20 PM — Aug 20 3:50 PM, Sindelfingen, Weather by CustomWeather, © 2014

Note: Actual official high and low records may vary slightly from our data, if they occured in-between our weather recording intervals... More about our weather records

Advertising

Sindelfingen weather history for previous 24 hours

 ConditionsComfort  
Time TempWeatherWind HumidityBarometerVisibility
3:50 PM
Aug 20
63 °FSunny.3 mph49%30.01 "Hg10 mi
3:20 PM63 °FSunny.3 mph52%30.01 "Hg10 mi
2:50 PM63 °FSunny.6 mph49%30.04 "Hg10 mi
2:20 PM63 °FPartly sunny.5 mph49%30.04 "HgN/A
1:50 PM64 °FPartly sunny.1 mph56%30.04 "HgN/A
1:20 PM63 °FPartly sunny.5 mph56%30.04 "HgN/A
12:50 PM61 °FPartly sunny.5 mph59%30.04 "HgN/A
12:20 PM61 °FPartly sunny.3 mph59%30.04 "HgN/A
11:50 AM61 °FPartly sunny.2 mph68%30.04 "HgN/A
11:20 AM59 °FScattered clouds.5 mph63%30.04 "HgN/A
10:50 AM57 °FScattered clouds.2 mph72%30.07 "HgN/A
10:20 AM59 °FScattered clouds.3 mph72%30.07 "HgN/A
9:50 AM55 °FScattered clouds.3 mph77%30.07 "HgN/A
9:20 AM55 °FScattered clouds.2 mph72%30.07 "HgN/A
8:50 AM54 °FScattered clouds.2 mph82%30.07 "HgN/A
8:20 AM54 °FSunny.2 mph82%30.07 "Hg10 mi
7:50 AM54 °FSunny.3 mph82%30.04 "Hg10 mi
7:20 AM52 °FClear.1 mph82%30.04 "Hg10 mi
6:50 AM52 °FClear.6 mph82%30.04 "Hg10 mi
6:20 AM52 °FClear.6 mph82%30.04 "Hg10 mi
5:50 AM52 °FClear.6 mph82%30.04 "Hg10 mi
5:20 AM54 °FClear.3 mph82%30.04 "Hg10 mi
4:50 AM52 °FClear.5 mph88%30.04 "Hg10 mi
4:20 AM52 °FClear.5 mph82%30.04 "Hg10 mi
3:50 AM52 °FClear.3 mph82%30.01 "Hg10 mi
3:20 AM52 °FClear.7 mph82%30.04 "Hg10 mi
2:50 AM52 °FClear.5 mph82%30.01 "Hg10 mi
2:20 AM52 °FClear.7 mph82%30.04 "Hg10 mi
1:50 AM54 °FClear.5 mph82%30.04 "Hg10 mi
1:20 AM54 °FClear.5 mph77%30.04 "Hg10 mi
12:50 AM55 °FClear.5 mph77%30.04 "Hg10 mi
12:20 AM55 °FClear.5 mph72%30.01 "Hg10 mi
11:50 PM
Aug 19
57 °FClear.5 mph67%30.01 "Hg10 mi
11:20 PM57 °FClear.7 mph67%30.01 "Hg10 mi
10:50 PM57 °FClear.9 mph67%30.01 "Hg10 mi
10:20 PM59 °FClear.10 mph63%30.01 "Hg10 mi
9:50 PM57 °FClear.6 mph72%29.98 "Hg10 mi
9:20 PM55 °FSunny.3 mph77%29.98 "Hg10 mi
8:50 PM59 °FSunny.5 mph63%29.98 "Hg10 mi
8:20 PM61 °FSunny.7 mph59%29.95 "Hg10 mi
7:50 PM63 °FSunny.10 mph56%29.95 "Hg10 mi
7:20 PM64 °FSunny.14 mph52%29.95 "Hg10 mi
6:50 PM64 °FSunny.15 mph56%29.95 "Hg10 mi
6:20 PM66 °FSunny.14 mph46%29.92 "Hg10 mi
5:50 PM68 °FSunny.9 mph40%29.92 "Hg10 mi
5:20 PM68 °FScattered clouds.8 mph49%29.92 "HgN/A
Weather by CustomWeather, © 2014

See weather overviewHow to use our weather pages